Location: Erdweis
(48.5167°N, 15.3500°E)
Time: 13:10:18
(UTC+00:00)

USA 234 - Pass Details

Date: 25 January 2021
Orbit: 1100 x 1107 km, 123.0° (Epoch: 01 March)

Event Time Altitude Azimuth Distance (km) Brightness Sun altitude
Exits shadow 16:44:55 11° 64° (ENE) 2,853 4.8 -9.8°
Maximum altitude 16:50:40 43° 357° (N) 1,515 3.9 -10.7°
Drops below altitude 10° 16:56:45 10° 289° (WNW) 2,967 6.4 -11.7°
Sets 16:59:21 0° 283° (WNW) 3,926 7.4 -12.1°
